Погода в Нахчиване

Погода в Нахчиване : погода сейчас, прогноз погоды и архив. Всё, что Вы хотите узнать о погоде в Нахчиване!

Поиск расширенной информации на нашем сайте:

Другие новости

Новости СМИ2

Главная страница сайта

Новости сайта

03.07.2017

Напоминаем, что на нашем специализированном сайте Метеоцентр.Азия вы можете получить высокодетализированные автоматические прогнозы погоды по пунктам России, СНГ и мира в авиационном формате (включающие направление и скорость ветра, видимость, явления погоды, количество и форму облачности, нижнюю и верхнюю границу облачности).


Погода в Нахчиване - сегодня

Время (UTC), дата Ветер
(°,м/с) 
Видим.   Явления Облачность Т
(°С)
Тd
(°С)
f(%) Тe
(°С)
Pmin
(гПа)
dP
(гПа)
Po
(мм)
O2
(г/м3)
Тmin Tmax R s Состояние
почвы
12 22.02.18 тихо ()   10 км    9/0 средняя 
[As trans]
+11 +3.8 61 +11  1013.6  -1.4  684  264           
15 22.02.18 тихо ()   н/о    8/0 средняя 
[Ac trans]
+9.4 +4 69 +9  1014.2  684  266           
21 22.02.18 тихо ()   н/о    8/0 средняя 
[Ac trans]
+5.2 +3.5 89 +5  1015.9  -0.1  685  270           
00 23.02.18 тихо ()   н/о    8/0 средняя 
[Ac trans]
+4 +2.5 90 +4  1016.5  685  271           
03 23.02.18 360 (С) н/о    6/0 средняя 
[Ac trans]
+1.4 +0 90 +1  1017.5  685  274           
06 23.02.18 тихо ()   10 км    9/0 средняя 
[Ac trans]
+4.2 +1.7 84 +4  1016.8  0.4  685  271  +1.3       
09 23.02.18 тихо ()   10 км    8/0 средняя 
[Ac trans]
+9.4 +3.4 66 +9  1013.9  -0.7  684  266           
12 23.02.18 180 (Ю) 10 км    9/3 1000 м средняя 
[Cu med, cong|Ac trans]
+11.2 +4.1 62 +12  1011.6  -1.5  683  264           
15 23.02.18 180 (Ю) н/о    8/3 1000 м средняя 
[Cu med, cong|Ac trans]
+10 +4.1 67 +11  1011.3  -0.7  683  265           
21 23.02.18 тихо ()   н/о    8/0 средняя 
[Ac trans]
+4.4 +2.2 86 +4  1013.3  0.5  683  270           
00 24.02.18 тихо ()   н/о    8/0 средняя 
[Ac trans]
+2.6 +0.8 88 +3  1014.6  0.5  683  272           
03 24.02.18 180 (Ю) н/о    9/0 средняя 
[As trans]
+2.4 +0.8 89 +3  1014.7  683  272           
06 24.02.18 тихо ()   4000 м    9/0 средняя 
[As trans]
+5.8 +3.7 86 +6  1014.2  0.8  683  269  +2.3       
09 24.02.18 180 (Ю) 10 км    8/4 1000 м средняя 
[Cu med, cong|As trans]
+9.8 +5.1 73 +10  1012.4  -0.1  683  265           
12 24.02.18 220 (ЮЗ) 10 км    8/5 1000 м средняя 
[Cu med, cong|Ac trans]
+12.8 +0.6 43 +13  1009  -2.2  682  262           
15 24.02.18 100 (В) н/о    8/5 1000 м средняя 
[Cu hum|Ac trans]
+9.6 +4 68 +10  1010  -0.1  682  265           
21 24.02.18 100 (В) н/о    8/5 1000 м средняя 
[Cu med, cong|Ac trans]
+4.4 +2.7 89 +4  1012.4  0.2  682  270           
00 25.02.18 120 (ЮВ) н/о    8/5 1000 м средняя 
[Cu med, cong|Ac trans]
+2.8 +1.5 91 +2  1013  682  272           
03 25.02.18 тихо ()   н/о    3/0 средняя 
[Ac trans]
+1 +0.2 94 +1  1014.1  0.1  682  274           
09 25.02.18 тихо ()   10 км    3/3 1000 м 
[Cu med, cong]
+11.5 +3 56 +12  1010.6  -1.3  683  263           
12 25.02.18 тихо ()   20000 м    3/3 1000 м 
[Cu hum]
+14.4 +2.5 45 +14  1007.3  -2.1  681  260           
15 25.02.18 тихо ()   н/о    3/0 
[Cu med, cong]
+1.9 -1.2 80 +2  1008.3  681  272           
18 25.02.18 180 (Ю) н/о    3/0 средняя 
[Ac trans]
+4.6 +1 77 +4  1010.9  681  270    +14.9       
21 25.02.18 360 (С) н/о    4/0 средняя 
[Ac trans]
+4.6 +1 77 +4  1010.9  0.1  681  270           
00 26.02.18 360 (С) н/о    4/0 средняя 
[Ac trans]
+4.1 +1.3 82 +4  1011.2  681  270           
Время (UTC), дата Ветер
(°,м/с) 
Видим.   Явления Облачность Т
(°С)
Тd
(°С)
f(%) Тe
(°С)
Pmin
(гПа)
dP
(гПа)
Po
(мм)
O2
(г/м3)
Тmin Tmax R s Состояние
почвы

Для получения пояснительной информации подведите курсор к названию столбца.

ПОГОДА в Нахчиване - архив

Всё, что Вы хотите узнать о погоде в Нахчиване - удобно и подробно!

Выберите нужную дату (начиная с 1 января 2015* года) и нажмите кнопку "Найти".
Будут отображены архивные сводки погоды по пункту Нахчиван, начиная с указанной даты.


Отображать данные в формате CSV (для использования в таблицах Excel)


Внимание! Наш архив погоды предназначен исключительно для личного некоммерческого использования в познавательных целях. Если Вам необходимы официальные справки о состоянии погоды (для производственных, юридических, коммерческих и т.п. целей), обращайтесь в органы Росгидромета.

*Примечание: данная дата относится к архиву по метеостанциям СССР (Россия, СНГ, Балтия).
Архив по метеостанциям Зарубежной Европы и Азии (кроме Китая) хранится 10 дней, по другим регионам земного шара (Китай, Африка, Америка, Австралия, Океания) - 1 день.

Нахчиван - район местоположения метеостанции


Название, широта, долгота, высота метеостанции:
Нахчиван 39.2°ш. 45.4°д. 873 м над ур. моря [Азербайджан]

Дополнительная информация

В oтличие oт бoльшинства пoгoдных сайтoв мы публикуем пoдрoбную метеoинфoрмацию в детальнoм прoфессиoнальнoм фoрмате.

Характеристики температуры и влажнoсти вoздуха измеряются на высoте 2 м в тени вдали oт зданий и деревьев.
Скoрoсть ветра измеряется на высoте 10 м (на урoвне рoста челoвека скoрoсть ветра ниже в 1.5-2 раза). Если метеoстанция нахoдится в гoрoде или в лесу, тo скoрoсть ветра занижена на 2-4 м/с пo сравнению с oткрытым местoм. Скoрoсть ветра над акватoриями крупных рек и oзёр, а также на вершинах хoлмoв на 2-5 м/с выше, чем в oбычных услoвиях.
Атмoсфернoе давление в разных тoчках местнoсти мoжет значительнo oтличаться oт давления на метеoстанции, в зависимoсти oт услoвий рельефа (при пoдъёме на 10 м давление пoнижается примернo на 1 мм рт.ст.).